Regional Weather Roundup
Issued by NWS Little Rock, AR

Home | Current Version | Previous Version | Graphics & Text | Print | Product List | Glossary On
Versions: 1 2 3 4 5 6 7 8 9 10 11 12 13 14 15 16 17 18 19 20 21 22 23 24 25 26 27 28 29 30 31 32
000
ASUS44 KLZK 241505
RWRLZK

WEATHER ROUNDUP FOR ARKANSAS
NATIONAL WEATHER SERVICE LITTLE ROCK AR
1000 AM CDT MON JUL 24 2017

NOTE: "FAIR" INDICATES FEW OR NO CLOUDS BELOW 12,000 FEET WITH NO
SIGNIFICANT WEATHER AND/OR OBSTRUCTIONS TO VISIBILITY.

ARZ001-003-010-029-241600-
NORTHWEST ARKANSAS

CITY           SKY/WX    TMP DP  RH WIND       PRES   REMARKS
FAYETTEVILLE   SUNNY     79  72  79 E3        30.02F
FORT SMITH     SUNNY     84  71  65 VRB3      29.98S HX  89
HARRISON       MOSUNNY   82  70  66 VRB3      30.02S HX  86
BENTONVILLE    SUNNY     81  70  69 CALM      30.03S
ROGERS         SUNNY     81  70  69 W3        30.03R
SILOAM SPGS    SUNNY     81  70  69 CALM      30.01F
HIGHFILL       SUNNY     80  73  79 S5        30.02S
SPRINGDALE       N/A     79  72  78 CALM      30.03S
$$

ARZ004-005-016-241600-
NORTH CENTRAL ARKANSAS

CITY           SKY/WX    TMP DP  RH WIND       PRES   REMARKS
BATESVILLE     CLOUDY    81  72  74 CALM      29.96S
FLIPPIN        SUNNY     82  68  61 CALM      29.97S HX  85
MTN HOME       MOSUNNY   82  73  74 VRB3      29.99S HX  87
$$

ARZ040-041-241600-
WEST CENTRAL ARKANSAS

CITY           SKY/WX    TMP DP  RH WIND       PRES   REMARKS
MENA           CLOUDY    81  81 100 CALM      30.01S HX  91
MOUNT IDA      CLOUDY    78  73  84 CALM      29.98R
$$

ARZ009-017-025-026-028-241600-
NORTHEAST ARKANSAS

CITY           SKY/WX    TMP DP  RH WIND       PRES   REMARKS
CORNING        LGT RAIN  82  77  83 SW3       29.96S HX  91
JONESBORO      PTSUNNY   84  75  74 S8        29.95F HX  92
WALNUT RIDGE   CLOUDY    81  73  78 SE5       29.95S HX  85
BLYTHEVILLE    MOSUNNY   81  75  82 SW5       29.96F HX  87
$$

ARZ022-023-033-042-044-241600-
CENTRAL ARKANSAS

CITY           SKY/WX    TMP DP  RH WIND       PRES   REMARKS
LITTLE ROCK    MOSUNNY   83  75  77 N7        29.96S HX  90
N LITTLE ROCK    N/A     81  74  80 NW6       29.94F HX  86
JACKSONVILLE   PTSUNNY   82  76  81 NW3       29.95F HX  90
CONWAY           N/A     82  73  74 CALM      29.95S HX  88
SEARCY         MOSUNNY   84  77  79 MISG        N/A  HX  94
HOT SPRINGS    PTSUNNY   81  73  76 CALM      29.98S HX  86
RUSSELLVILLE   MOSUNNY   82  73  74 NW6       29.96F HX  87
CLINTON        FAIR      82  73  74 CALM      29.97S HX  88
$$

ARZ036-241600-
EAST ARKANSAS

CITY           SKY/WX    TMP DP  RH WIND       PRES   REMARKS
WEST MEMPHIS   CLOUDY    80  76  87 SW5       29.95R HX  86
$$

ARZ050-053-066-070-073-241600-
SOUTHWEST ARKANSAS

CITY           SKY/WX    TMP DP  RH WIND       PRES   REMARKS
ARKADELPHIA    FAIR      84  75  74 CALM      29.97R HX  92
CAMDEN         CLOUDY    84  72  65 SW3       29.97S HX  89
TEXARKANA      CLOUDY    81  73  76 CALM      29.98S HX  86
EL DORADO      CLOUDY    77  73  87 SW8       29.99R
DE QUEEN       CLOUDY    81  74  79 SE5       29.97R HX  86
$$

ARZ056-057-069-241600-
SOUTHEAST ARKANSAS

CITY           SKY/WX    TMP DP  RH WIND       PRES   REMARKS
PINE BLUFF     MOSUNNY   81  73  76 E3        29.97S HX  86
STUTTGART      MOSUNNY   81  64  57 SE6       29.97S
MONTICELLO     CLOUDY    78  73  84 VRB3      29.97F

$$






USA.gov is the U.S. government's official web portal to all federal, state and local government web resources and services.